Location: Wellington
(41.3000°S, 174.8000°E)
Time: 04:05:21
(UTC+13:00)

ISS - Visible Passes

Search period start: 21 March 2019 00:00
Search period end: 31 March 2019 00:00
Orbit: 406 x 411 km, 51.6° (Epoch: 21 March)

Date Brightness Start Highest point End Pass type
(mag) Time Alt. Az. Time Alt. Az. Time Alt. Az.
25 Mar -0.7 06:41:10 10° NNE 06:42:40 12° NE 06:44:09 10° ENE visible
27 Mar -2.0 06:33:48 10° NNW 06:36:46 30° NE 06:39:47 10° ESE visible
28 Mar -1.3 05:44:21 13° NNE 05:45:51 17° NE 05:48:06 10° E visible
29 Mar -3.7 06:28:37 18° NW 06:31:00 80° NE 06:34:23 10° ESE visible
30 Mar -2.8 05:39:59 41° NE 05:39:59 41° NE 05:43:09 10° ESE visible
